Location: Newark
(44.3681°N, 100.3364°W)
Time: 09:43:10
(UTC+00:00)

Vanguard 1 - Pass Details

Date: 01 March 2020
Orbit: 649 x 3833 km, 34.2° (Epoch: 07 April)

Event Time Altitude Azimuth Distance (km) Brightness Sun altitude
Rises 15:10:41 0° 260° (W) 7,932 14.2 18.1°
Reaches altitude 10° 15:16:11 10° 258° (WSW) 6,940 14.0 19.0°
Maximum altitude 15:38:35 61° 186° (S) 3,479 13.4 22.3°
Drops below altitude 10° 15:53:10 10° 110° (ESE) 4,768 15.1 24.4°
Sets 15:56:09 0° 107° (ESE) 5,429 14.9 24.8°
